Location: Colonia Mina de C?rbuni
(46.1667°N, 22.7167°E)
Time: 22:41:30
(UTC+00:00)

SR - Visible Passes

Search period start: 16 April 2024 00:00
Search period end: 26 April 2024 00:00
Orbit: 577 x 863 km, 66.7° (Epoch: 16 April)

Date Brightness Start Highest point End Pass type
(mag) Time Alt. Az. Time Alt. Az. Time Alt. Az.
16 Apr ? 01:38:25 38° SW 01:40:36 77° NW 01:45:49 10° NNE visible
17 Apr ? 00:47:48 52° SSE 00:48:34 57° ESE 00:53:41 10° NE visible
17 Apr ? 02:27:03 14° W 02:30:45 29° NW 02:35:12 10° NNE visible
17 Apr ? 23:57:09 29° ESE 23:57:09 29° ESE 00:01:12 10° NE visible
18 Apr ? 01:36:23 33° WSW 01:38:25 49° NW 01:43:25 10° NNE visible
18 Apr ? 23:06:25 14° E 23:06:25 14° E 23:07:53 10° ENE visible
19 Apr ? 00:45:39 72° SSW 00:46:15 90° ESE 00:51:27 10° NNE visible
19 Apr ? 02:24:53 10° W 02:28:47 20° NW 02:32:33 10° N visible
19 Apr ? 23:54:53 45° E 23:54:53 45° E 23:59:13 10° NE visible
20 Apr ? 01:34:07 24° W 01:36:17 33° NW 01:40:53 10° NNE visible
20 Apr ? 23:04:04 21° E 23:04:04 21° E 23:06:33 10° ENE visible
21 Apr ? 00:43:17 54° W 00:43:59 58° NW 00:49:02 10° NNE visible
21 Apr ? 02:23:56 10° WNW 02:26:52 15° NNW 02:29:41 10° N visible
21 Apr ? 23:52:25 67° ENE 23:52:25 67° ENE 23:56:58 10° NE visible
22 Apr ? 01:31:38 17° WNW 01:34:12 23° NW 01:38:13 10° NNE visible
22 Apr ? 23:01:29 31° ENE 23:01:29 31° ENE 23:04:37 10° NE visible
23 Apr ? 00:40:43 35° WNW 00:41:44 38° NW 00:46:28 10° NNE visible
23 Apr ? 02:23:41 10° NW 02:25:00 11° NNW 02:26:17 10° N visible
23 Apr ? 22:10:31 14° ENE 22:10:31 14° ENE 22:11:43 10° ENE visible
23 Apr ? 23:49:44 68° NNW 23:49:44 68° NNW 23:54:32 10° NNE visible
24 Apr ? 01:28:57 10° WNW 01:32:11 17° NW 01:35:21 10° N visible
24 Apr ? 22:58:43 45° ENE 22:58:43 45° ENE 23:02:23 10° NE visible
25 Apr ? 00:37:56 22° WNW 00:39:33 26° NW 00:43:47 10° NNE visible
25 Apr ? 22:07:40 22° ENE 22:07:40 22° ENE 22:09:53 10° NE visible
25 Apr ? 23:46:52 44° WNW 23:47:06 45° NW 23:51:57 10° NNE visible
